This demonstration page uses our WeatherBlox Daily Observations layout. Learn more.

Left ArrowRight Arrow

34.74481, -87.66753

Hourly Observations for December 11, 2017

Temp ( °F °C ) Dew Point ( °F °C ) Humidity (%) Winds ( mph kmh ) Pressure ( in mb ) Visibility ( mi km ) Precip ( " mm )
12:53 am 00:53 Clear 38 3.3 26 -3.3 62 62 WSW 5 7 30.19 1022 10 16 0.00 0.00
1:53 am 01:53 Clear 35 1.7 27 -2.8 72 72 Calm 30.19 1022 10 16 0.00 0.00
2:53 am 02:53 Clear 33 0.6 27 -2.8 78 78 Calm 30.19 1022 10 16 0.00 0.00
3:53 am 03:53 Clear 31 -0.6 26 -3.3 82 82 Calm 30.18 1022 10 16 0.00 0.00
4:53 am 04:53 Clear 32 0 25 -3.9 75 75 Calm 30.19 1022 10 16 0.00 0.00
5:53 am 05:53 Clear 29 -1.7 25 -3.9 85 85 Calm 30.19 1022 10 16 0.00 0.00
6:53 am 06:53 Sunny 29 -1.7 25 -3.9 85 85 Calm 30.19 1022 10 16 0.00 0.00
7:53 am 07:53 Sunny 34 1.1 29 -1.7 82 82 Calm 30.18 1022 10 16 0.00 0.00
8:53 am 08:53 Sunny 43 6.1 31 -0.6 63 63 SW 5 7 30.19 1022 10 16 0.00 0.00
9:53 am 09:53 Sunny 48 8.9 31 -0.6 52 52 Calm 30.16 1022 10 16 0.00 0.00
10:53 am 10:53 Sunny 53 11.7 31 -0.6 43 43 W 6 9 30.14 1021 10 16 0.00 0.00
11:53 am 11:53 Sunny 59 15 29 -1.7 32 32 W 10 17 30.09 1019 10 16 0.00 0.00
12:53 pm 12:53 Sunny 61 16.1 29 -1.7 30 30 W 13 20 30.05 1018 10 16 0.00 0.00
1:53 pm 13:53 Sunny 63 17.2 29 -1.7 28 28 WSW 14 22 30.01 1016 10 16 0.00 0.00
2:53 pm 14:53 Sunny 62 16.7 29 -1.7 29 29 SW 15 24 30.00 1016 10 16 0.00 0.00
3:53 pm 15:53 Sunny 60 15.6 30 -1.1 32 32 SW 10 17 29.98 1015 10 16 0.00 0.00
4:53 pm 16:53 Clear 56 13.3 31 -0.6 39 39 SSW 10 17 29.96 1015 10 16 0.00 0.00
5:53 pm 17:53 Clear 52 11.1 30 -1.1 43 43 SSW 3 6 29.96 1015 10 16 0.00 0.00
6:53 pm 18:53 Clear 51 10.6 31 -0.6 46 46 SSW 8 13 29.95 1014 10 16 0.00 0.00
7:53 pm 19:53 Clear 50 10 31 -0.6 48 48 SW 8 13 29.95 1014 10 16 0.00 0.00
8:53 pm 20:53 Clear 52 11.1 31 -0.6 45 45 SW 10 17 29.93 1014 10 16 0.00 0.00
9:53 pm 21:53 Clear 54 12.2 30 -1.1 40 40 WSW 13 20 29.93 1013 10 16 0.00 0.00
10:53 pm 22:53 Clear 53 11.7 31 -0.6 43 43 WNW 16 26 29.94 1014 10 16 0.00 0.00
11:53 pm 23:53 Clear 51 10.6 31 -0.6 46 46 WNW 8 13 29.93 1014 10 16 0.00 0.00

Powered by AerisWeather